Location: Artiguedieu
(43.5000°N, 0.5454°E)
Time: 08:58:16
(UTC+00:00)

Explorer 7 - Pass Details

Date: 06 August 2021
Orbit: 484 x 676 km, 50.3° (Epoch: 22 September)

Event Time Altitude Azimuth Distance (km) Brightness Sun altitude
Rises 05:34:55 0° 283° (WNW) 2,561 9.7 6.3°
Reaches altitude 10° 05:37:16 10° 294° (WNW) 1,695 8.9 6.7°
Maximum altitude 05:40:40 30° 357° (N) 942 8.3 7.3°
Drops below altitude 10° 05:44:12 10° 60° (ENE) 1,768 11.4 7.9°
Sets 05:46:42 0° 71° (ENE) 2,692 12.8 8.4°
